When you browse on this site, cookies collect data to enhance your experience and personalize the content and advertising you see.
Visit our Privacy Policy to learn more. By continuing to use the site, you agree to this use of cookies and data.
  • In Latvia
  • List of Countries
  • For 7 days
  • Water Temperature
  • Satellite Maps
  • Weather Map
  • Weather Widgets
  • user-avatar
    Login

    Hourly Weather Babruysk

    Today, 17 November, Saturday

    Time Temperature Precipitation Wind Pressure Humidity
    00:00 -5°C° 0 mm 2 mps 768 mmHg 71%
    01:00 -5°C° 0 mm 2 mps 768 mmHg 69%
    02:00 -5°C° 0 mm 2 mps 768 mmHg 67%
    03:00 -5°C° 0 mm 2 mps 768 mmHg 65%
    04:00 -5°C° 0 mm 2 mps 768 mmHg 64%
    05:00 -5°C° 0 mm 2 mps 768 mmHg 62%
    06:00 -5°C° 0 mm 2 mps 768 mmHg 61%
    07:00 -5°C° 0 mm 2 mps 768 mmHg 60%
    08:00 -5°C° 0 mm 2 mps 767 mmHg 59%
    09:00 -2°C° 0 mm 1 mps 767 mmHg 55%
    10:00 0°C° 0 mm 1 mps 767 mmHg 50%
    11:00 +1°C° 0 mm 1 mps 767 mmHg 46%
    12:00 +2°C° 0 mm 1 mps 767 mmHg 46%
    13:00 +2°C° 0 mm 1 mps 766 mmHg 47%
    14:00 +2°C° 0 mm 1 mps 766 mmHg 47%
    15:00 +1°C° 0 mm 1 mps 765 mmHg 50%
    16:00 0°C° 0 mm 1 mps 765 mmHg 53%
    17:00 -1°C° 0 mm 1 mps 764 mmHg 57%
    18:00 -1°C° 0 mm 1 mps 764 mmHg 56%
    19:00 -1°C° 0 mm 1 mps 763 mmHg 56%
    20:00 -1°C° 0 mm 1 mps 763 mmHg 56%
    21:00 -1°C° 0 mm 1 mps 763 mmHg 56%
    22:00 -3°C° 0 mm 2 mps 762 mmHg 56%
    23:00 -3°C° 0 mm 2 mps 762 mmHg 56%

    Tomorrow, 18 November, Sunday

    Time Temperature Precipitation Wind Pressure Humidity
    00:00 -3°C° 0 mm 2 mps 761 mmHg 59%
    01:00 -3°C° 0 mm 2 mps 760 mmHg 61%
    02:00 -3°C° 0 mm 2 mps 759 mmHg 63%
    03:00 -2°C° 0 mm 3 mps 758 mmHg 66%
    04:00 -2°C° 0 mm 3 mps 758 mmHg 68%
    05:00 -2°C° 0 mm 3 mps 757 mmHg 71%
    06:00 -2°C° 0 mm 3 mps 756 mmHg 76%
    07:00 -1°C° 0 mm 3 mps 755 mmHg 80%
    08:00 -1°C° 0 mm 3 mps 755 mmHg 85%
    09:00 0°C° 0 mm 3 mps 755 mmHg 86%
    10:00 0°C° 0 mm 3 mps 754 mmHg 86%
    11:00 +1°C° 0 mm 3 mps 754 mmHg 87%
    12:00 +2°C° 0.2 mm 2 mps 753 mmHg 88%
    13:00 +2°C° 0.2 mm 2 mps 753 mmHg 90%
    14:00 +2°C° 0.2 mm 2 mps 753 mmHg 92%
    15:00 +2°C° 0.1 mm 2 mps 753 mmHg 93%
    16:00 +1°C° 0.1 mm 2 mps 753 mmHg 95%
    17:00 +2°C° 0.1 mm 1 mps 753 mmHg 96%
    18:00 +2°C° 0 mm 1 mps 752 mmHg 96%
    19:00 +2°C° 0 mm 1 mps 752 mmHg 97%
    20:00 +2°C° 0 mm 1 mps 752 mmHg 97%
    21:00 +2°C° 0 mm 1 mps 752 mmHg 97%
    22:00 +1°C° 0 mm 1 mps 752 mmHg 97%
    23:00 +1°C° 0 mm 1 mps 752 mmHg 97%

    Day after tomorrow, 19 November, Monday

    Time Temperature Precipitation Wind Pressure Humidity
    00:00 +1°C° 0.2 mm 1 mps 752 mmHg 97%
    01:00 +2°C° 0.2 mm 1 mps 752 mmHg 97%
    02:00 +2°C° 0.2 mm 1 mps 752 mmHg 97%
    03:00 +2°C° 0.1 mm 1 mps 752 mmHg 97%
    04:00 +2°C° 0.1 mm 1 mps 752 mmHg 97%
    05:00 +1°C° 0.1 mm 1 mps 752 mmHg 96%
    06:00 +1°C° 0 mm 1 mps 753 mmHg 96%
    07:00 -1°C° 0 mm 2 mps 753 mmHg 96%
    08:00 -1°C° 0 mm 2 mps 754 mmHg 96%
    09:00 -1°C° 0.1 mm 2 mps 754 mmHg 95%
    10:00 +1°C° 0.1 mm 2 mps 755 mmHg 93%
    11:00 0°C° 0.1 mm 3 mps 755 mmHg 91%
    12:00 0°C° 0 mm 3 mps 755 mmHg 90%
    13:00 +1°C° 0 mm 3 mps 755 mmHg 89%
    14:00 +1°C° 0 mm 3 mps 755 mmHg 87%
    15:00 0°C° 0 mm 3 mps 755 mmHg 89%
    16:00 0°C° 0 mm 3 mps 756 mmHg 90%
    17:00 0°C° 0 mm 3 mps 756 mmHg 91%
    18:00 0°C° 0 mm 3 mps 756 mmHg 92%
    19:00 -1°C° 0 mm 3 mps 756 mmHg 92%
    20:00 -1°C° 0 mm 3 mps 756 mmHg 93%
    21:00 -1°C° 0 mm 3 mps 756 mmHg 93%
    22:00 -1°C° 0 mm 3 mps 756 mmHg 93%
    23:00 -1°C° 0 mm 2 mps 757 mmHg 93%

    20 November, Tuesday

    Time Temperature Precipitation Wind Pressure Humidity
    00:00 -1°C° 0 mm 2 mps 757 mmHg 94%
    01:00 -1°C° 0 mm 2 mps 757 mmHg 94%
    02:00 -2°C° 0 mm 2 mps 757 mmHg 94%
    03:00 -2°C° 0 mm 2 mps 756 mmHg 94%
    04:00 -3°C° 0 mm 2 mps 756 mmHg 94%
    05:00 -3°C° 0 mm 2 mps 756 mmHg 94%
    06:00 -4°C° 0 mm 2 mps 756 mmHg 94%
    07:00 -4°C° 0 mm 2 mps 756 mmHg 93%
    08:00 -4°C° 0 mm 2 mps 756 mmHg 93%
    09:00 -3°C° 0 mm 2 mps 756 mmHg 87%
    10:00 -3°C° 0 mm 2 mps 756 mmHg 82%
    11:00 -2°C° 0 mm 2 mps 756 mmHg 77%
    12:00 -1°C° 0 mm 2 mps 756 mmHg 77%
    13:00 -1°C° 0 mm 2 mps 756 mmHg 77%
    14:00 -1°C° 0 mm 2 mps 755 mmHg 77%
    15:00 -2°C° 0 mm 2 mps 755 mmHg 82%
    16:00 -3°C° 0 mm 2 mps 755 mmHg 87%
    17:00 -3°C° 0 mm 2 mps 755 mmHg 92%
    18:00 -3°C° 0 mm 2 mps 754 mmHg 93%
    19:00 -4°C° 0 mm 2 mps 754 mmHg 94%
    20:00 -4°C° 0 mm 2 mps 754 mmHg 95%
    21:00 -4°C° 0 mm 2 mps 754 mmHg 95%
    22:00 -3°C° 0 mm 2 mps 754 mmHg 95%
    23:00 -3°C° 0 mm 2 mps 753 mmHg 95%

    21 November, Wednesday

    Time Temperature Precipitation Wind Pressure Humidity
    00:00 -3°C° 0 mm 2 mps 753 mmHg 94%
    01:00 -4°C° 0 mm 3 mps 753 mmHg 93%
    02:00 -2°C° 0 mm 3 mps 752 mmHg 92%
    03:00 -3°C° 0 mm 4 mps 752 mmHg 91%
    04:00 -3°C° 0 mm 4 mps 752 mmHg 91%
    05:00 -3°C° 0 mm 4 mps 751 mmHg 91%
    06:00 -3°C° 0.3 mm 4 mps 751 mmHg 91%
    07:00 -3°C° 0.3 mm 4 mps 751 mmHg 91%
    08:00 -4°C° 0.3 mm 5 mps 751 mmHg 91%
    09:00 -4°C° 0.4 mm 5 mps 751 mmHg 90%
    10:00 -2°C° 0.4 mm 5 mps 751 mmHg 90%
    11:00 -2°C° 0.4 mm 5 mps 751 mmHg 90%
    12:00 -2°C° 0.2 mm 5 mps 751 mmHg 89%
    13:00 -2°C° 0.2 mm 5 mps 751 mmHg 89%
    14:00 -3°C° 0.2 mm 6 mps 751 mmHg 89%
    15:00 -2°C° 0.1 mm 5 mps 751 mmHg 89%
    16:00 -2°C° 0.1 mm 5 mps 751 mmHg 89%
    17:00 -2°C° 0.1 mm 5 mps 751 mmHg 89%
    18:00 -2°C° 0 mm 5 mps 751 mmHg 89%
    19:00 -2°C° 0 mm 5 mps 752 mmHg 89%
    20:00 -2°C° 0 mm 5 mps 752 mmHg 89%
    21:00 -2°C° 0 mm 5 mps 752 mmHg 89%
    22:00 -2°C° 0 mm 5 mps 753 mmHg 89%
    23:00 -2°C° 0 mm 5 mps 753 mmHg 89%

    22 November, Thursday

    Time Temperature Precipitation Wind Pressure Humidity
    00:00 -2°C° 0 mm 5 mps 753 mmHg 89%
    01:00 -2°C° 0 mm 4 mps 753 mmHg 89%
    02:00 -2°C° 0 mm 4 mps 754 mmHg 89%
    03:00 -2°C° 0 mm 4 mps 754 mmHg 89%
    04:00 -2°C° 0 mm 4 mps 754 mmHg 89%
    05:00 -3°C° 0 mm 4 mps 754 mmHg 89%
    06:00 -3°C° 0 mm 4 mps 755 mmHg 90%
    07:00 -3°C° 0 mm 4 mps 755 mmHg 90%
    08:00 -3°C° 0 mm 4 mps 755 mmHg 90%
    09:00 -3°C° 0 mm 4 mps 756 mmHg 89%
    10:00 -3°C° 0 mm 4 mps 756 mmHg 88%
    11:00 -2°C° 0 mm 4 mps 756 mmHg 87%
    12:00 -1°C° 0 mm 3 mps 756 mmHg 87%
    13:00 -1°C° 0 mm 3 mps 757 mmHg 86%
    14:00 -1°C° 0 mm 3 mps 757 mmHg 85%
    15:00 -2°C° 0 mm 3 mps 757 mmHg 88%
    16:00 -3°C° 0 mm 2 mps 757 mmHg 90%
    17:00 -4°C° 0 mm 2 mps 757 mmHg 93%
    18:00 -4°C° 0 mm 2 mps 758 mmHg 93%
    19:00 -5°C° 0 mm 2 mps 758 mmHg 94%
    20:00 -5°C° 0 mm 2 mps 758 mmHg 95%
    21:00 -5°C° 0 mm 2 mps 758 mmHg 95%
    22:00 -6°C° 0 mm 2 mps 759 mmHg 95%
    23:00 -6°C° 0 mm 2 mps 759 mmHg 95%
    Show more